Location: *
(49.5652°N, 2.3874°E)
Time: 04:02:16
(UTC+00:00)

Daily predictions for brighter satellites

Satellite Brightness Start Highest point End
(mag) Time Altitude Azimuth Time Altitude Azimuth Time Altitude Azimuth
Cosmos 158 Rocket 4.4 00:05:02 51° WNW 00:05:02 51° WNW 00:09:58 10° NNE
Cosmos 1461 4.5 00:01:28 10° NW 00:03:29 29° NNW 00:03:29 29° NNW
Cosmos 1844 Rocket 4.3 00:02:06 10° NW 00:05:29 22° W 00:05:29 22° W
Lacrosse 4 Rocket 4.2 00:04:28 10° WNW 00:06:26 13° NNW 00:08:23 10° N
Cosmos 1943 Rocket 3.7 00:01:38 10° NNW 00:06:41 31° NE 00:10:24 16° E
SL-16 R/B 3.6 00:06:04 23° W 00:08:33 32° NW 00:13:37 10° NNE
ATLAS 5 CENTAUR R/B 3.8 00:06:34 10° NNW 00:10:27 27° NNE 00:15:03 10° E
RESURS DK-1 4.3 00:13:30 22° ENE 00:13:30 22° ENE 00:15:24 10° NE
Cosmos 972 Rocket 4.3 00:12:33 54° E 00:12:33 54° E 00:16:54 10° NNE
Cosmos 1867 3.7 00:10:41 10° NW 00:15:26 62° WNW 00:15:26 62° WNW
NOSS 2-2 (D) 4.1 00:14:05 10° NW 00:18:12 63° NE 00:18:12 63° NE
USA 32 4.1 00:20:05 68° WNW 00:20:05 68° WNW 00:25:08 10° N
Cosmos 2344 4.1 00:20:17 10° NW 00:28:27 77° NE 00:39:39 10° SE
Tsikada Rocket 3.9 00:30:35 65° WSW 00:31:16 71° WNW 00:37:27 10° N
USA 215 4.1 00:28:32 10° ENE 00:34:07 32° SE 00:34:07 32° SE
Cosmos 1536 4.4 00:32:19 10° N 00:35:23 28° ENE 00:35:23 28° ENE
Lacrosse 5 3.0 00:35:37 23° WNW 00:38:24 43° NNW 00:43:18 10° NE
NOSS 2-3 (C) 4.4 00:37:27 10° NW 00:43:02 86° SW 00:45:10 48° SE
ATLAS 3B R/B 4.4 00:36:28 10° NW 00:43:35 38° NNE 00:50:47 10° E
NOSS 0 Rocket 4.1 00:45:55 53° SE 00:46:32 55° ESE 00:52:32 10° NE
NOSS 2-3 (D) 4.4 00:42:32 10° NW 00:48:06 84° SW 00:50:20 46° SE
NOSS 3-4 (A) 4.1 00:51:31 31° W 00:53:47 45° NW 00:59:48 10° NE
NOSS 3-4 (C) 4.1 00:51:35 31° W 00:53:49 46° NW 00:59:51 10° NE
Gbstr 26 Del rocket 3.3 00:57:32 62° NE 00:57:32 62° NE 01:01:03 10° ENE
Cosmos 1766 Rocket 4.5 00:52:48 10° NNW 00:55:54 39° NW 00:55:54 39° NW
H-2A R/B 3.8 00:54:22 10° N 00:57:39 23° WNW 00:57:39 23° WNW
Cosmos 2237 Rocket 2.6 00:59:39 47° SE 01:00:13 49° ESE 01:05:42 10° NE
IDEFIX/ARIANE 42P 3.6 00:58:06 10° NNE 01:02:50 34° E 01:03:55 31° ESE
Cosmos 1980 3.9 01:02:36 52° SE 01:03:10 54° ESE 01:08:40 10° NE
NOSS 2-2 (C) 4.4 01:01:38 10° NW 01:04:40 46° WNW 01:04:40 46° WNW
CZ-2D R/B 3.5 01:03:56 10° NNE 01:08:42 31° E 01:10:24 26° SE
Cosmos 1634 Rocket 4.5 01:02:59 10° NNW 01:08:53 43° W 01:09:31 42° WSW
USA 267 3.4 01:03:59 10° ESE 01:10:28 71° NNE 01:16:58 10° WNW
USA 308 4.5 01:14:03 23° E 01:14:03 23° E 01:15:49 10° ENE
Cosmos 2360 Rocket 4.0 01:10:54 16° W 01:13:49 23° NW 01:18:17 10° NNE
COSMOS 2428 2.9 01:13:37 53° WSW 01:14:38 62° WNW 01:20:18 10° NNE
Cosmos 1743 Rocket 4.1 01:12:34 10° N 01:16:48 51° ENE 01:17:16 49° E
Meteor 2-6 Rocket 4.3 01:15:49 59° SW 01:16:49 72° WNW 01:22:42 10° N
Cosmos 2180 Rocket 4.5 01:12:20 10° NNW 01:18:41 70° W 01:19:59 55° SSW
Cosmos 1726 3.7 01:16:21 10° N 01:17:56 27° NNW 01:17:56 27° NNW
Resurs 1-4 Rocket 3.0 01:15:48 10° NNE 01:20:46 39° E 01:22:16 32° SE
Cosmos 2322 4.3 01:21:01 39° W 01:22:26 47° NW 01:27:59 10° NNE
Cosmos 2219 Rocket 3.5 01:23:12 24° W 01:25:13 31° NW 01:30:09 10° NNE
BREEZE-M DEB (TANK) 4.5 01:27:27 12° E 01:27:27 12° E 01:27:38 10° E
IRIDIUM 104 4.2 01:21:10 10° N 01:26:23 71° W 01:26:54 66° SW
Cosmos 2221 3.9 01:26:50 27° WNW 01:26:50 27° WNW 01:30:11 10° N
Cosmos 2322 Rocket 4.5 01:27:06 10° WNW 01:30:37 17° NNW 01:34:08 10° N
Cosmos 2278 Rocket 2.5 01:27:11 10° NW 01:32:30 47° WSW 01:32:30 47° WSW
IRIDIUM 114 4.4 01:30:22 10° N 01:35:31 60° W 01:36:02 57° WSW
USA 290 4.1 01:36:22 10° N 01:39:16 29° ENE 01:40:16 24° E
Cosmos 2333 Rocket 4.3 01:38:15 11° WNW 01:41:54 19° NW 01:45:53 10° N
Meteor 2-10 4.2 01:36:21 10° NNW 01:42:05 88° ENE 01:44:15 40° SSE
Cosmos 1420 Rocket 3.9 01:36:50 10° NNW 01:42:08 87° ENE 01:44:11 39° SSE
COBE Rocket 4.2 01:37:35 10° NNE 01:42:09 54° E 01:43:15 43° SE
Cosmos 1680 Rocket 3.7 01:42:34 48° SSE 01:43:53 65° ESE 01:49:09 10° NNE
ADEOS II 3.0 01:40:07 10° NNE 01:45:04 40° E 01:47:24 26° SSE
RESURS DK-1 3.5 01:49:06 31° WNW 01:49:29 32° NW 01:53:10 10° NNE
Meteor 1-28 Rocket 4.3 01:49:06 28° ESE 01:50:25 40° ENE 01:53:51 10° N
Cosmos 1943 Rocket 2.2 01:45:12 10° NW 01:50:46 57° WSW 01:51:51 49° SSW
ATLAS 2AS CENTAUR R/B 3.1 01:49:36 35° S 01:52:39 59° ESE 01:59:38 10° NE
Nadezhda 4 Rocket 3.9 01:50:48 45° SW 01:52:40 68° WNW 01:58:47 10° N
ATLAS 5 CENTAUR R/B 1.9 01:49:58 10° NW 01:54:49 84° SW 02:00:53 10° SE
Cosmos 1408 Rocket 4.3 01:51:25 10° NNW 01:54:59 37° WNW 01:54:59 37° WNW
Cosmos 2056 Rocket 3.5 01:50:23 10° NNW 01:55:50 86° WSW 01:58:37 30° SSE
Cosmos 1428 Rocket 4.4 01:53:46 40° S 01:56:16 89° W 02:02:32 10° N
SL-16 R/B 3.0 01:54:58 29° SSE 01:57:19 43° ESE 02:02:40 10° NE
MOZ.5/SAFIR/RUBIN 5/SL-8 4.5 01:59:23 36° W 01:59:23 36° W 02:03:34 10° NNW
Sich 1 3.1 01:57:19 10° NNW 02:01:28 53° W 02:01:28 53° W
Cosmos 1340 Rocket 3.3 02:01:32 44° SE 02:02:19 53° E 02:06:10 10° NNE
CZ-2C R/B 2.5 02:00:14 34° S 02:02:41 84° WSW 02:08:01 10° NNW
GP-B 3.1 01:58:18 10° N 02:02:44 80° E 02:03:57 48° S
Meteor 1-27 Rocket 3.7 02:01:02 44° SSW 02:02:56 78° WNW 02:08:35 10° N
GEOS 3 Rocket 3.6 01:59:51 10° SE 02:05:12 87° SW 02:10:33 10° NW
Okean 1 3.6 02:05:34 48° WNW 02:05:34 48° WNW 02:09:11 10° N
Cosmos 1624 Rocket 3.9 02:00:33 10° NNW 02:05:46 74° WSW 02:08:03 34° S
SL-16 R/B 2.7 02:00:25 10° SSE 02:06:34 73° ENE 02:12:49 10° NNW
ALOS 3.6 02:03:13 10° NNE 02:07:26 33° E 02:10:17 17° SSE
NPP 3.6 02:04:50 10° NNE 02:10:13 72° WNW 02:12:10 40° SW
NOSS 3-1 (A) 4.2 02:03:20 10° NW 02:10:24 73° NE 02:19:05 10° SE
Cosmos 1340 2.6 02:07:00 10° N 02:10:27 69° ENE 02:10:59 56° SE
Cosmos 1536 4.3 02:08:27 10° NNW 02:10:40 22° WNW 02:10:40 22° WNW
Cosmos 1805 3.0 02:09:01 10° N 02:12:45 88° E 02:13:21 61° SSE
Cosmos 1733 3.6 02:10:38 10° NNW 02:13:33 42° WNW 02:13:33 42° WNW
Cosmos 1500 Rocket 4.4 02:12:22 10° NNW 02:16:13 32° W 02:16:13 32° W
H-2A R/B 3.9 02:13:15 10° N 02:17:07 43° WNW 02:17:40 40° W
USA 215 3.2 02:11:16 10° ENE 02:17:51 88° SSE 02:21:28 29° WSW
Cosmos 1805 Rocket 4.2 02:14:06 10° NNW 02:18:04 36° W 02:18:06 36° W
Intercosmos 25 Rocket 4.1 02:15:44 10° N 02:19:38 66° E 02:25:41 10° SSE
Lacrosse 5 3.3 02:17:32 10° WNW 02:22:17 37° N 02:27:03 10° ENE
COSMOS 2441 4.3 02:17:32 10° NNE 02:22:27 89° W 02:24:29 36° SSW
Cosmos 923 Rocket 4.4 02:20:52 35° WSW 02:22:44 51° WNW 02:27:55 10° NNE
Cosmos 1666 Rocket 3.5 02:18:27 10° N 02:22:56 90° WSW 02:25:08 30° S
Cosmos 1553 Rocket 4.1 02:17:34 10° N 02:23:51 78° E 02:29:59 10° SSE
Meteor 1-11 Rocket 4.5 02:19:17 10° NNW 02:24:06 31° W 02:25:03 30° WSW
NOSS 3-1 (C) 4.0 02:21:09 10° NW 02:28:21 65° SW 02:37:03 10° SSE
ATLAS 3B R/B 3.0 02:27:28 10° NW 02:35:21 87° NE 02:43:10 10° SE
MSX 4.1 02:30:05 10° N 02:35:43 56° WNW 02:38:35 29° SW
Cosmos 1371 Rocket 4.5 02:33:11 10° NW 02:38:04 40° WSW 02:39:56 30° SSW
Cosmos 1656 Rocket 3.5 02:34:19 10° NNW 02:39:45 81° WSW 02:45:10 10° SSE
Cosmos 2026 Rocket 4.2 02:37:39 27° SW 02:41:03 57° WNW 02:47:22 10° N
IDEFIX/ARIANE 42P 3.3 02:37:35 10° N 02:42:24 39° WNW 02:44:41 26° WSW
Cosmos 1328 Rocket 3.5 02:41:11 28° S 02:43:29 86° WNW 02:47:57 10° N
Gbstr 26 Del rocket 3.0 02:39:47 12° WNW 02:43:45 70° N 02:47:34 10° E
Cosmos 1626 1.9 02:42:32 34° S 02:43:46 70° E 02:47:04 10° NNE
USA 308 2.9 02:42:30 30° W 02:44:09 59° NNW 02:48:03 10° ENE
Cosmos 2369 Rocket 2.1 02:38:32 10° NNW 02:44:11 88° ENE 02:49:46 10° SSE
Cosmos 2237 Rocket 3.2 02:41:27 21° W 02:44:28 36° NW 02:49:42 10° NNE
Cosmos 1092 Rocket 4.2 02:42:40 27° SW 02:45:55 52° WNW 02:51:57 10° N
CZ-2C R/B 3.2 02:43:20 10° N 02:48:35 67° WNW 02:51:58 24° SSW
Cosmos 1151 Rocket 3.8 02:47:22 29° WSW 02:48:40 35° WNW 02:52:42 10° N
CZ-2D R/B 2.6 02:43:43 10° N 02:48:52 46° WNW 02:51:41 25° SW
Cosmos 1975 3.1 02:45:34 10° NNW 02:49:16 43° W 02:50:23 33° SW
Cosmos 921 Rocket 3.3 02:48:29 31° SW 02:50:17 53° WNW 02:54:37 10° NNE
Cosmos 1633 Rocket 3.1 02:48:15 10° NNW 02:52:31 55° W 02:55:02 23° SSW
SAR-Lupe-1 4.0 02:48:57 10° N 02:52:33 70° WNW 02:54:03 32° SSW
Cosmos 2297 3.7 02:47:04 10° NNW 02:52:46 64° WSW 02:58:25 10° SSE
USA 267 3.4 02:47:26 10° SSE 02:53:42 49° SW 03:00:00 10° WNW
AQUA 3.9 02:49:17 10° N 02:53:59 64° WNW 02:56:42 25° SW
SAR-Lupe-4 3.6 02:53:12 10° N 02:56:44 59° WNW 02:58:13 31° SW
Resurs 1-4 Rocket 2.9 02:55:44 10° N 03:00:30 35° WNW 03:03:20 21° WSW
Cosmos 1766 3.0 03:00:21 10° NNW 03:04:03 73° W 03:07:19 13° S
Cosmos 494 Rocket 3.9 03:02:00 22° SSW 03:05:24 74° WNW 03:10:33 10° NNE
Iridium 51 4.0 03:05:13 15° S 03:07:52 78° E 03:11:20 10° N
Meteor 2-4 Rocket 3.9 03:04:17 21° SW 03:07:55 54° WNW 03:13:30 10° N
Cosmos 1943 3.9 03:03:45 10° S 03:09:14 51° ESE 03:14:45 10° NE
FENGYUN 3A 4.0 03:05:22 10° N 03:10:36 50° WNW 03:14:21 18° SW
USA 290 3.8 03:11:07 10° NW 03:13:01 19° W 03:13:01 19° W
Cosmos 1048 Rocket 4.0 03:09:34 17° SSW 03:13:40 83° WNW 03:18:55 10° NNE
Cosmos 2263 4.1 03:08:09 10° NNW 03:13:48 76° WSW 03:19:26 10° SSE
UNK 4.0 03:10:15 12° S 03:14:19 46° W 03:18:47 10° NNW
Thor Agena Rocket 4.5 03:09:52 10° NNE 03:14:44 46° E 03:19:36 10° S
CZ-2C R/B 3.1 03:15:27 10° NNE 03:20:34 58° E 03:25:34 10° S
H-2A R/B 4.4 03:17:59 10° NE 03:21:55 22° E 03:25:55 10° SE
ADEOS II 2.9 03:19:55 10° N 03:24:37 34° WNW 03:28:17 15° WSW
EO 1 Delta rocket 4.2 03:21:40 10° N 03:26:08 50° WNW 03:30:33 12° SSW
Cosmos 883 Rocket 4.5 03:21:49 10° N 03:27:58 88° W 03:34:07 10° S
Cosmos 468 4.5 03:23:30 12° SSW 03:28:20 85° WNW 03:33:37 10° NNE
Cosmos 1707 2.8 03:27:55 10° S 03:31:36 74° E 03:35:17 10° NNE
Cosmos 1302 Rocket 4.1 03:27:04 10° NNW 03:32:18 82° ENE 03:37:30 10° SSE
IRS-1D 4.0 03:27:41 10° NNE 03:32:49 63° ESE 03:38:01 10° S
CZ-4 R/B 3.8 03:29:05 10° NNE 03:33:47 75° WNW 03:38:24 10° SSW
Cosmos 1110 Rocket 4.3 03:30:42 10° NW 03:35:42 44° WSW 03:40:42 10° S
Cosmos 1842 3.1 03:32:11 10° SSW 03:35:54 73° W 03:39:40 10° N
YAOGAN 6 2.6 03:34:59 10° NNE 03:38:17 71° ESE 03:41:36 10° S
ATLAS 5 CENTAUR R/B 3.5 03:34:53 10° WNW 03:38:27 18° WSW 03:42:27 10° SSW
Cosmos 2266 Rocket 3.9 03:33:13 10° SSW 03:39:13 68° WNW 03:45:16 10° N
Cosmos 1603 4.3 03:35:40 10° S 03:41:09 58° ESE 03:46:42 10° NE
SL-16 R/B 3.0 03:36:50 13° WSW 03:41:30 39° NW 03:46:49 10° NNE
S3M 4.1 03:35:32 10° NNW 03:41:33 55° W 03:47:37 10° SSW
SL-08 ROCKET BODY 4.4 03:36:50 10° SSW 03:42:47 73° WNW 03:48:53 10° N
CZ-2C R/B 4.4 03:41:42 11° WSW 03:43:44 14° W 03:46:20 10° WNW
ATLAS 2AS CENTAUR R/B 3.4 03:37:01 11° WSW 03:43:49 48° NW 03:50:38 10° NE
Cosmos 1452 Rocket 4.1 03:39:17 10° NW 03:44:04 36° WSW 03:48:49 10° SSW
Cosmos 1515 Rocket 4.0 03:40:24 10° SSW 03:44:35 45° WNW 03:48:51 10° N
ALOS 3.1 03:40:29 10° N 03:44:38 33° WNW 03:48:37 11° SW
Cosmos 1869 Rocket 3.5 03:42:27 10° NNW 03:46:48 77° W 03:51:05 10° S
Envisat 3.1 03:44:27 10° N 03:49:30 65° WNW 03:54:30 10° SSW
SL-16 R/B 3.7 03:45:59 10° SW 03:50:45 23° W 03:55:36 10° NW
USA 215 3.9 03:54:19 10° ENE 04:00:37 52° NNW 04:06:55 10° W
Cosmos 2228 Rocket 3.7 03:59:49 10° S 04:04:08 60° E 04:08:28 10° NNE
Meteor 1-22 Rocket 4.1 03:58:57 10° NNW 04:04:32 79° W 04:09:53 10° S
METEOR-M 4.5 04:00:08 10° N 04:05:16 50° WNW 04:10:24 10° SW
Cosmos 1674 3.4 04:02:30 10° SW 04:05:33 29° WNW 04:08:38 10° N
Lacrosse 5 2.3 04:00:47 10° NW 04:05:55 71° NNE 04:11:00 10° ESE
Meteor 1-13 Rocket 4.4 04:02:54 10° SSW 04:08:41 72° WNW 04:14:37 10° N
CZ-3 R/B 4.4 03:52:10 10° SW 04:10:22 25° S 04:17:56 10° SE
USA 229 DEB 4.0 04:03:55 10° NW 04:11:17 67° SW 04:19:15 10° SSE
USA 229 4.0 04:04:02 10° NW 04:11:22 67° SW 04:19:18 10° SSE
